Location: Unspecified
(0.0000°N, 0.0000°E)
Time: 22:45:54
(UTC+02:00)

Cosmos 1833 Rocket - Visible Passes

Search period start: 20 July 2017 00:00
Search period end: 30 July 2017 00:00
Orbit: 831 x 841 km, 71.0° (Epoch: 19 July)

Date Brightness Start Highest point End Pass type
(mag) Time Alt. Az. Time Alt. Az. Time Alt. Az.
22 Jul 5.4 23:20:59 10° NW 23:21:23 12° NW 23:21:23 12° NW visible
23 Jul 5.0 23:04:12 10° NNW 23:05:42 18° NW 23:05:42 18° NW visible
24 Jul 4.4 22:47:26 10° NNW 22:50:05 27° NW 22:50:05 27° NW visible
25 Jul 3.7 22:30:41 10° NNW 22:34:32 42° NW 22:34:32 42° NW visible
26 Jul 3.0 22:13:57 10° NNW 22:19:06 63° W 22:19:06 63° W visible
27 Jul 2.7 21:57:15 10° NNW 22:02:49 74° WSW 22:03:44 60° SSW visible
28 Jul 2.6 21:40:33 10° NNW 21:46:09 83° WSW 21:48:29 37° S visible
29 Jul 2.6 21:23:52 10° NNW 21:29:28 88° ENE 21:33:18 21° SSE visible
